BEIDOU 17

Last updated on Sun Feb 19 2023 00:02:47 GMT+0000 (Coordinated Universal Time)

1 40549U 15019A 23049.52473024 -.00000145 00000+0 00000+0 0 9992 2 40549 51.4563 309.8882 0035873 193.6547 285.2843 1.00300113 28907
UTC large
Height (km)
Speed (km/s)
/
Latitude / Longitude
Inclination (degrees)
Orbital Period (minutes)
Azimuth
Elevation
Range (km)
Doppler Factor

Next 0 passes for location: London (51.5072 / 0.1276)

Sorry there are no passes over London.